Probability
0 0 0 0 0 0 0 0 1 5 10 14 13 10 10 13 13 12 13 16 19 22 23 25 27 28 28 27 29 31 33 35 38 43 47 48 48 48 48 48 46 45 44 42
0 0 0 0 0 0 0 2 4 7 11 13 13 12 12 12 13 13 14 16 20 22 24 25 27 29 29 28 28 30 33 36 39 43 47 48 48 48 47 46 44 42 40 38
0 0 0 0 1 1 2 4 7 10 10 10 11 12 13 13 13 15 16 17 20 23 25 27 28 29 30 27 25 27 31 35 39 43 45 46 45 45 44 44 42 39 35 32
0 0 0 0 1 2 4 6 10 11 9 7 8 10 12 13 14 16 18 19 20 23 25 28 29 29 29 26 23 23 26 31 36 39 40 40 40 40 41 41 40 37 33 31
0 0 0 1 2 3 3 7 11 12 9 7 7 9 11 13 15 16 18 20 20 21 24 26 28 29 29 26 23 22 22 25 29 32 34 34 34 34 36 37 37 34 33 32
0 0 0 2 3 3 4 7 12 13 11 9 10 11 14 16 15 14 16 18 20 21 23 25 27 29 28 26 24 23 21 21 25 29 31 31 31 30 30 32 33 31 31 32
0 0 1 3 3 4 7 11 14 15 14 12 14 16 17 16 14 11 12 15 18 20 21 23 24 24 24 22 23 24 22 22 24 28 29 28 28 29 28 29 30 29 28 29
3 4 6 8 7 8 12 15 16 17 16 14 14 15 14 14 14 12 11 12 16 18 19 21 22 21 19 19 19 20 21 21 22 25 26 25 26 26 26 27 28 28 27 27
6 8 11 14 14 13 14 15 16 17 15 13 11 10 11 13 14 13 12 12 15 17 17 18 19 19 18 17 15 16 19 20 21 22 23 24 24 24 24 24 25 26 25 24
6 8 10 13 14 14 12 12 13 12 10 9 8 9 12 13 14 16 15 14 15 16 16 17 17 17 16 15 13 14 17 20 21 21 22 22 21 21 20 20 21 22 20 19
6 7 8 8 9 9 9 9 9 8 7 6 5 8 11 13 16 18 17 16 15 15 16 17 17 16 16 16 13 12 14 17 19 20 20 19 17 15 14 13 13 14 13 13
7 8 7 5 4 3 4 5 6 5 5 4 4 7 10 13 17 19 17 15 14 14 16 17 17 16 16 16 14 11 11 12 15 17 18 18 15 12 9 6 5 5 6 6
7 7 6 3 1 0 1 2 3 3 3 4 7 10 12 14 16 18 17 15 14 12 12 13 13 13 14 14 13 11 10 9 11 13 15 16 15 12 8 4 2 1 1 2
6 6 4 2 0 0 0 0 2 3 5 8 11 13 14 14 15 17 18 17 15 11 8 7 7 8 12 13 11 10 9 8 8 8 11 14 15 13 10 6 3 2 2 1
6 5 3 1 0 1 0 1 3 4 7 10 12 13 12 11 12 15 16 16 14 10 6 4 4 7 11 11 10 9 7 6 5 5 7 11 12 11 10 7 4 3 3 2
5 4 2 1 0 0 0 2 4 6 7 9 10 10 9 8 8 10 12 11 10 8 6 6 5 6 8 9 9 7 5 4 3 4 6 9 10 9 8 6 5 4 4 4
2 2 2 2 1 1 1 3 5 6 6 6 6 5 5 6 7 9 10 9 8 7 7 6 5 5 6 8 8 5 4 3 2 3 5 8 9 8 7 6 5 5 5 5
0 1 2 3 3 3 3 4 5 6 5 4 2 2 3 6 8 10 11 11 10 9 7 6 5 4 5 7 7 4 2 2 1 1 2 5 7 9 9 7 5 4 4 5
1 1 2 3 3 4 4 4 4 3 3 1 0 1 3 6 8 11 12 12 12 11 10 7 5 3 4 6 6 4 2 1 0 0 1 1 3 7 10 8 5 3 3 4
2 2 2 2 2 3 4 3 2 1 1 0 0 1 3 4 7 10 12 12 12 13 13 10 6 5 5 5 6 5 3 1 1 1 1 0 1 3 7 7 5 3 3 4
1 1 1 1 1 3 3 2 1 0 0 0 0 0 1 2 4 7 9 9 10 12 12 9 8 7 7 6 5 5 3 1 1 2 2 1 0 1 3 4 4 3 3 3
0 1 1 1 2 3 3 2 0 0 0 0 0 0 1 1 2 4 6 6 6 7 8 8 7 6 5 5 4 4 4 3 3 3 3 2 1 2 2 2 3 4 2 1
2 3 3 2 2 3 2 1 0 0 0 0 0 0 0 1 1 2 3 2 2 2 5 6 3 2 2 2 3 4 3 3 3 3 3 3 3 3 3 2 3 4 3 3
3 4 4 3 2 2 1 1 0 0 0 0 0 0 0 0 0 1 1 1 0 0 1 2 1 0 1 2 3 3 3 3 3 3 3 3 4 5 3 2 3 5 5 4
3 3 2 3 2 1 1 0 0 0 0 0 0 0 0 0 0 1 1 1 0 0 0 0 0 0 1 2 3 3 3 3 3 4 4 4 5 6 5 4 5 6 5 4
2 1 1 2 1 1 0 0 0 0 0 0 0 0 0 0 0 1 1 1 0 0 0 0 0 0 0 1 2 3 3 3 4 5 6 6 6 7 8 8 8 8 5 3
1 1 1 1 1 1 0 0 0 0 0 0 0 0 0 0 0 0 1 0 0 0 0 0 0 0 0 0 1 3 3 3 4 6 6 7 8 9 9 10 10 9 7 5
Wind_Speed
10 11 10 10 11 9 8 9 8 6 2 2 4 6 4 5 4 3 5 6 6 6 5 5 4 3 2 2 2 1 1 2 2 3 3 3 3 2 2 2 3 2 2 2
11 12 12 12 11 10 10 10 8 5 1 2 5 6 5 4 4 4 5 5 5 5 4 4 3 2 2 2 2 1 1 1 2 2 2 2 2 2 2 1 1 2 2 2
10 11 12 11 10 9 7 6 5 3 0 1 3 3 4 3 4 4 4 5 5 4 4 3 2 2 2 1 1 1 1 1 2 2 2 2 2 2 2 2 1 1 2 2
8 9 11 5 4 4 4 2 0 2 2 1 2 4 4 4 4 4 5 5 4 4 3 3 2 1 1 1 1 1 1 1 1 1 1 1 2 2 1 1 1 1 1 2
7 9 9 5 3 4 3 1 3 2 1 3 4 2 4 5 5 5 5 4 3 3 3 2 2 2 0 0 1 0 0 1 1 1 1 1 1 1 1 1 1 1 1 1
8 9 7 2 3 4 3 2 4 4 2 3 1 1 2 6 5 6 5 3 3 3 2 2 2 2 1 0 0 0 0 0 1 1 1 0 1 1 1 1 1 1 1 1
11 10 4 3 3 3 4 2 5 4 3 2 2 3 2 2 3 4 3 2 2 2 2 2 2 2 1 1 1 1 0 0 0 1 1 1 1 1 1 2 1 1 1 1
8 9 4 5 3 3 4 4 4 3 3 3 2 2 1 1 2 2 1 1 2 2 2 2 1 1 1 1 2 1 1 1 1 0 2 1 1 1 2 2 2 2 2 2
2 1 3 4 4 3 2 1 2 2 2 1 0 0 0 1 1 1 1 1 1 1 1 1 1 1 1 1 2 1 1 1 1 1 1 1 1 2 2 2 2 2 3 2
3 1 2 1 1 1 1 1 1 0 1 2 2 1 1 0 0 1 1 1 1 0 0 0 0 1 1 1 2 2 2 1 2 2 2 1 1 2 2 2 2 2 2 1
5 4 3 1 1 1 1 1 1 1 2 3 2 2 1 1 0 0 0 1 1 1 1 1 1 1 1 1 1 2 2 2 2 2 1 1 0 1 1 0 1 1 0 0
4 2 3 3 3 2 2 1 2 2 2 2 1 2 1 1 0 0 1 1 1 1 1 1 1 2 2 2 1 2 2 2 2 2 1 1 1 0 2 1 1 2 1 1
3 3 4 5 4 3 2 2 2 2 2 2 1 1 1 1 0 0 1 0 1 1 1 1 1 2 2 2 2 2 2 2 2 2 2 2 2 2 1 0 0 0 1 2
2 3 5 4 3 3 4 3 2 2 2 1 0 0 0 0 0 1 1 1 1 1 1 1 2 2 2 2 2 3 3 3 3 3 3 2 2 2 2 2 2 1 1 2
4 5 6 5 3 4 3 3 2 2 1 1 1 1 1 0 1 1 1 1 1 1 2 2 2 2 2 1 2 2 3 2 2 2 3 2 2 2 2 2 2 2 2 2
5 5 5 5 4 4 4 3 2 2 1 1 1 1 1 1 1 1 1 1 1 1 2 2 2 3 2 2 1 2 2 2 3 3 3 2 2 2 1 1 1 1 1 1
5 5 5 5 4 4 3 3 3 2 1 0 1 1 1 1 2 1 1 1 1 1 2 2 2 2 2 2 2 2 3 2 2 3 3 2 2 1 1 2 1 1 1 0
6 5 5 5 3 3 3 2 2 2 1 1 1 2 2 2 2 1 2 2 1 1 1 2 2 2 2 2 2 3 3 2 2 2 1 1 1 1 1 1 1 2 1 1
5 4 3 2 2 2 2 2 2 2 2 2 2 2 2 2 2 2 2 2 2 2 1 2 2 2 2 2 3 3 3 3 2 1 1 1 2 2 1 1 1 2 1 1
2 1 0 0 1 1 1 1 1 1 2 2 2 2 2 2 2 2 2 2 2 1 0 0 2 2 2 2 3 4 3 3 2 2 1 2 2 2 2 2 3 2 1 0
2 1 0 1 1 1 1 1 1 2 2 2 2 2 2 2 2 2 3 3 1 0 1 2 2 1 2 3 4 4 3 2 2 2 2 2 2 2 2 2 2 2 1 1
1 1 1 1 1 1 0 1 1 2 2 2 2 2 2 2 3 3 3 2 1 1 1 1 1 1 2 3 4 3 3 2 2 1 1 2 2 2 2 2 2 1 1 1
1 1 1 1 1 0 0 1 1 1 2 2 2 3 3 2 3 2 2 1 1 1 2 0 0 1 2 3 3 3 3 2 2 2 2 2 2 2 2 2 1 1 1 1
2 1 1 1 1 1 1 1 1 1 1 2 2 2 2 2 2 2 1 1 1 2 1 1 2 2 3 3 2 2 2 2 2 2 2 2 2 1 1 1 1 1 1 1
1 1 1 1 1 1 1 1 2 1 1 0 0 1 1 1 1 1 0 2 3 2 2 3 4 4 3 3 2 2 2 1 2 2 2 2 2 2 1 1 0 1 1 1
1 1 0 1 1 1 1 1 1 1 1 0 0 1 1 1 1 0 0 1 2 2 1 1 2 3 3 2 1 1 1 1 1 1 2 2 2 2 2 2 2 1 1 1
1 1 1 1 1 2 1 1 1 1 0 0 0 0 1 0 0 0 1 1 1 1 1 1 1 1 1 1 1 1 1 2 2 2 3 2 2 2 3 3 2 2 2 2
Wind_Direction
270 273 267 263 267 262 259 266 263 267 262 172 115 117 111 95 92 74 56 47 54 56 40 40 50 48 54 70 86 103 148 149 157 165 171 172 173 170 157 161 178 176 174 177
277 270 270 269 263 259 259 259 263 273 300 79 86 93 96 88 84 72 62 49 45 49 46 34 30 22 39 46 82 117 235 169 151 164 166 167 161 157 155 149 158 169 175 167
276 277 275 262 262 257 255 256 264 262 211 79 91 96 88 82 84 77 62 51 45 41 37 22 25 30 43 45 61 141 216 162 152 146 154 165 164 150 163 163 141 148 168 164
273 275 263 272 314 280 262 259 73 143 167 135 82 83 78 70 67 63 53 44 35 26 32 25 18 29 77 88 124 153 197 163 118 126 140 145 145 140 159 161 174 151 165 185
270 266 264 268 313 305 280 274 41 79 79 71 65 104 95 73 70 67 60 47 32 28 21 20 14 3 65 130 127 164 209 109 149 156 157 152 143 138 159 193 191 197 193 185
264 270 271 301 14 344 278 211 58 75 54 54 37 292 69 50 55 66 61 48 27 21 25 20 10 5 19 19 45 229 166 266 192 146 145 179 156 154 175 220 223 213 201 208
255 262 269 27 11 310 267 59 59 58 45 37 33 50 62 48 46 63 59 44 30 27 34 24 17 17 14 358 329 332 11 213 82 102 164 209 175 208 216 222 223 202 201 220
250 258 260 30 3 8 52 42 41 35 36 49 61 82 102 64 68 69 50 21 26 35 34 27 24 20 13 0 359 359 353 349 21 306 256 226 184 220 229 222 217 214 216 219
296 310 77 50 57 71 78 39 36 16 359 7 290 254 96 61 71 29 358 18 40 47 43 33 19 14 349 352 348 347 346 334 314 281 278 249 212 225 225 224 226 220 212 207
285 206 176 132 96 62 19 360 343 63 288 278 281 285 300 15 25 349 356 31 30 10 340 343 338 320 344 348 328 322 298 280 265 254 252 265 247 240 240 239 234 228 217 200
280 302 307 298 309 339 346 329 316 296 270 270 265 276 297 289 216 150 154 207 222 221 220 226 257 278 293 297 301 286 281 273 262 249 247 245 232 292 248 236 237 231 235 226
280 324 313 308 299 303 285 278 290 295 296 311 324 304 309 333 7 173 181 193 226 233 230 228 240 261 269 262 255 260 265 271 264 243 218 218 210 213 35 102 138 143 158 184
293 304 295 285 282 293 297 284 270 256 261 276 292 308 328 349 329 303 212 187 269 255 249 246 256 259 258 246 243 246 260 262 267 255 224 216 222 211 196 96 36 199 185 178
310 288 279 280 286 295 292 282 282 280 279 297 281 233 176 7 299 284 305 309 317 311 297 282 283 284 269 240 233 246 253 244 253 260 252 231 228 229 217 202 192 187 210 203
280 273 271 271 268 270 265 253 256 273 308 314 258 204 195 274 310 309 319 323 320 321 331 326 318 314 304 271 249 257 271 270 255 262 260 240 239 242 235 224 207 188 177 172
280 278 276 268 258 253 248 236 243 250 264 289 97 73 34 356 323 315 334 331 335 327 327 324 324 326 325 319 304 264 262 268 271 274 268 254 243 249 257 259 259 230 207 188
274 272 275 273 263 251 246 232 235 240 239 231 66 12 309 281 277 300 315 304 326 317 329 328 322 322 332 332 304 275 259 243 247 272 274 278 272 254 242 255 278 292 275 203
268 263 261 263 262 257 253 241 238 247 230 200 233 254 263 262 265 288 292 290 294 304 317 331 345 327 321 320 296 286 279 259 233 254 278 287 280 276 269 252 260 266 258 189
269 258 250 247 255 261 263 244 240 235 232 236 243 246 253 264 272 275 281 287 290 286 303 339 310 294 309 330 309 288 285 288 287 255 252 262 255 252 252 278 282 272 262 187
315 315 291 248 244 235 265 281 276 250 236 239 243 246 259 275 283 279 277 274 278 286 298 282 271 285 301 312 300 285 284 287 288 283 269 271 274 266 252 255 264 264 270 272
356 7 294 233 241 229 242 240 246 250 236 231 237 242 252 265 276 283 272 268 254 229 252 215 238 287 313 310 283 278 283 289 286 285 282 274 274 277 277 269 261 261 269 262
323 313 269 238 217 254 277 230 236 241 229 231 241 240 240 245 251 254 257 273 262 147 240 227 223 309 309 301 285 287 292 292 294 289 283 277 271 273 280 280 268 260 265 269
286 231 225 204 183 210 261 254 255 248 243 249 253 243 238 248 259 254 243 227 215 196 241 268 42 252 278 282 286 296 296 294 293 291 288 280 272 273 276 285 297 283 248 274
332 330 294 227 195 215 224 254 250 252 258 255 245 242 242 239 246 255 271 148 148 178 208 150 191 237 254 262 272 285 293 300 295 299 306 309 305 305 316 339 9 7 347 324
324 307 296 276 241 225 189 215 210 205 239 251 214 175 213 252 278 287 4 132 147 173 200 203 215 226 238 257 266 280 292 321 328 323 319 315 314 324 339 352 336 337 333 334
282 266 244 273 276 278 234 216 209 204 243 311 101 135 146 161 251 262 152 170 178 192 233 222 211 227 250 265 275 311 322 322 304 300 326 337 345 351 2 9 17 16 354 343
239 233 211 225 241 248 243 228 215 194 172 51 1 62 59 31 311 189 207 229 207 186 219 241 224 217 274 319 24 25 358 352 353 360 3 11 8 360 355 360 3 3 350 345